TimeEDT,TemperatureF,Dew PointF,Humidity,Sea Level PressureIn,VisibilityMPH,Wind Direction,Wind SpeedMPH,Gust SpeedMPH,PrecipitationIn,Events,Conditions,WindDirDegrees,DateUTC
12:15 AM,26.6,13.5,58,29.82,10.0,West,4.6,-,N/A,,Scattered Clouds,280,2013-03-21 04:15:00
12:35 AM,26.6,13.3,57,29.82,10.0,NW,3.5,-,N/A,,Mostly Cloudy,310,2013-03-21 04:35:00
12:55 AM,27.0,13.8,58,29.82,10.0,NW,4.6,-,N/A,,Overcast,310,2013-03-21 04:55:00
1:15 AM,26.4,15.1,62,29.82,10.0,NW,5.8,-,N/A,,Overcast,320,2013-03-21 05:15:00
1:35 AM,25.2,15.1,66,29.81,10.0,NNW,4.6,-,N/A,,Mostly Cloudy,330,2013-03-21 05:35:00
2:15 AM,24.3,16.7,73,29.80,10.0,NW,4.6,-,N/A,,Mostly Cloudy,320,2013-03-21 06:15:00
2:35 AM,23.9,16.5,73,29.80,7.0,WNW,5.8,-,N/A,Snow,Light Snow,300,2013-03-21 06:35:00
2:55 AM,23.4,16.0,73,29.79,10.0,West,3.5,-,N/A,,Overcast,280,2013-03-21 06:55:00
3:15 AM,23.0,14.5,70,29.78,10.0,NW,4.6,-,N/A,,Mostly Cloudy,310,2013-03-21 07:15:00
3:35 AM,23.4,12.9,64,29.77,10.0,NW,3.5,-,N/A,,Clear,310,2013-03-21 07:35:00
3:55 AM,23.0,12.6,64,29.77,10.0,WNW,3.5,-,N/A,,Clear,290,2013-03-21 07:55:00
4:15 AM,22.6,12.0,64,29.77,10.0,West,5.8,-,N/A,,Clear,280,2013-03-21 08:15:00
4:35 AM,21.2,12.2,68,29.77,10.0,WSW,3.5,-,N/A,,Scattered Clouds,240,2013-03-21 08:35:00
4:55 AM,21.6,12.6,68,29.76,10.0,Calm,Calm,-,N/A,,Scattered Clouds,0,2013-03-21 08:55:00
5:15 AM,21.6,13.5,71,29.76,10.0,WSW,4.6,-,N/A,,Mostly Cloudy,250,2013-03-21 09:15:00
5:35 AM,21.7,14.0,72,29.76,10.0,West,4.6,-,N/A,,Overcast,260,2013-03-21 09:35:00
5:53 AM,21.2,14.0,74,29.76,10.0,West,5.8,-,N/A,,Scattered Clouds,270,2013-03-21 09:53:00
7:53 AM,19.4,14.0,80,29.77,10.0,SSW,3.5,-,N/A,,Mostly Cloudy,210,2013-03-21 11:53:00
8:53 AM,23.0,14.0,68,29.77,10.0,West,10.4,-,N/A,,Mostly Cloudy,280,2013-03-21 12:53:00
9:53 AM,23.0,12.2,63,29.76,10.0,WNW,10.4,-,N/A,,Scattered Clouds,290,2013-03-21 13:53:00
10:53 AM,24.8,8.6,50,29.76,10.0,WNW,11.5,18.4,N/A,,Mostly Cloudy,290,2013-03-21 14:53:00
11:53 AM,26.6,8.6,47,29.76,10.0,West,15.0,25.3,N/A,,Mostly Cloudy,270,2013-03-21 15:53:00
12:53 PM,24.8,8.6,50,29.75,10.0,WNW,5.8,-,N/A,,Mostly Cloudy,290,2013-03-21 16:53:00
2:53 PM,24.8,6.8,46,29.74,10.0,West,12.7,-,N/A,,Mostly Cloudy,280,2013-03-21 18:53:00
3:53 PM,26.6,6.8,43,29.73,10.0,WNW,12.7,-,N/A,,Mostly Cloudy,290,2013-03-21 19:53:00
4:53 PM,26.6,8.6,47,29.73,10.0,West,13.8,23.0,N/A,,Mostly Cloudy,280,2013-03-21 20:53:00
5:53 PM,26.6,6.8,43,29.74,10.0,WNW,11.5,20.7,N/A,,Mostly Cloudy,290,2013-03-21 21:53:00
6:53 PM,26.6,10.4,51,29.75,10.0,WNW,13.8,25.3,N/A,,Mostly Cloudy,290,2013-03-21 22:53:00
7:53 PM,24.8,10.4,54,29.76,10.0,WNW,9.2,18.4,N/A,,Mostly Cloudy,290,2013-03-21 23:53:00
8:53 PM,24.8,14.0,64,29.78,10.0,West,11.5,-,N/A,,Mostly Cloudy,270,2013-03-22 00:53:00
9:35 PM,24.4,14.0,65,29.78,10.0,West,12.7,17.3,N/A,,Clear,260,2013-03-22 01:35:00
9:55 PM,24.3,14.5,67,29.78,10.0,West,12.7,16.1,N/A,,Clear,260,2013-03-22 01:55:00
10:15 PM,24.3,14.9,68,29.78,10.0,West,12.7,-,N/A,,Clear,260,2013-03-22 02:15:00
10:35 PM,24.4,15.4,69,29.78,10.0,West,11.5,19.6,N/A,,Scattered Clouds,260,2013-03-22 02:35:00
10:55 PM,24.3,15.8,70,29.78,10.0,West,12.7,-,N/A,,Scattered Clouds,260,2013-03-22 02:55:00
11:15 PM,24.4,16.5,72,29.78,10.0,West,12.7,19.6,N/A,Snow,Light Snow,260,2013-03-22 03:15:00
11:35 PM,24.8,17.6,74,29.78,10.0,WSW,11.5,18.4,N/A,Snow,Light Snow,250,2013-03-22 03:35:00
11:55 PM,24.6,18.5,78,29.78,7.0,West,11.5,17.3,N/A,,Overcast,260,2013-03-22 03:55:00